When you browse on this site, cookies collect data to enhance your experience and personalize the content and advertising you see.
Visit our Privacy Policy to learn more. By continuing to use the site, you agree to this use of cookies and data.
  • In Spain
  • List of Countries
  • For 7 days
  • Water Temperature
  • Satellite Maps
  • Weather Map
  • Weather Widgets
  • user-avatar
    Login

    Hourly Weather Bongor

    Today, 21 April, Sunday

    Time Temperature Precipitation Wind Pressure Humidity
    00:00 +38°C° 0 mm 2 mps 726 mmHg 21%
    01:00 +37°C° 0 mm 1 mps 726 mmHg 23%
    02:00 +37°C° 0 mm 2 mps 726 mmHg 24%
    03:00 +37°C° 0 mm 2 mps 727 mmHg 25%
    04:00 +36°C° 0 mm 3 mps 727 mmHg 26%
    05:00 +36°C° 0 mm 3 mps 727 mmHg 24%
    06:00 +36°C° 0 mm 3 mps 727 mmHg 23%
    07:00 +36°C° 0 mm 3 mps 728 mmHg 21%
    08:00 +38°C° 0 mm 3 mps 728 mmHg 18%
    09:00 +40°C° 0 mm 3 mps 728 mmHg 15%
    10:00 +43°C° 0 mm 4 mps 728 mmHg 12%
    11:00 +44°C° 0 mm 3 mps 728 mmHg 11%
    12:00 +46°C° 0 mm 2 mps 727 mmHg 11%
    13:00 +46°C° 0 mm 1 mps 727 mmHg 11%
    14:00 +46°C° 0 mm 1 mps 726 mmHg 11%
    15:00 +46°C° 0 mm 1 mps 725 mmHg 11%
    16:00 +43°C° 0 mm 0 mps 725 mmHg 11%
    17:00 +45°C° 0 mm 1 mps 725 mmHg 12%
    18:00 +44°C° 0 mm 1 mps 725 mmHg 13%
    19:00 +43°C° 0 mm 2 mps 725 mmHg 14%
    20:00 +42°C° 0 mm 1 mps 725 mmHg 16%
    21:00 +41°C° 0 mm 1 mps 726 mmHg 17%
    22:00 +37°C° 0 mm 0 mps 726 mmHg 19%
    23:00 +40°C° 0 mm 1 mps 726 mmHg 19%

    Tomorrow, 22 April, Monday

    Time Temperature Precipitation Wind Pressure Humidity
    00:00 +39°C° 0 mm 1 mps 726 mmHg 19%
    01:00 +39°C° 0 mm 2 mps 726 mmHg 20%
    02:00 +38°C° 0 mm 2 mps 725 mmHg 20%
    03:00 +38°C° 0 mm 2 mps 725 mmHg 21%
    04:00 +36°C° 0 mm 1 mps 725 mmHg 21%
    05:00 +36°C° 0 mm 1 mps 726 mmHg 21%
    06:00 +36°C° 0 mm 1 mps 726 mmHg 21%
    07:00 +36°C° 0 mm 1 mps 726 mmHg 21%
    08:00 +40°C° 0 mm 1 mps 727 mmHg 19%
    09:00 +42°C° 0 mm 1 mps 727 mmHg 16%
    10:00 +44°C° 0 mm 1 mps 728 mmHg 14%
    11:00 +46°C° 0 mm 2 mps 727 mmHg 12%
    12:00 +46°C° 0 mm 2 mps 726 mmHg 11%
    13:00 +47°C° 0 mm 2 mps 726 mmHg 10%
    14:00 +47°C° 0 mm 2 mps 725 mmHg 9%
    15:00 +47°C° 0 mm 2 mps 724 mmHg 9%
    16:00 +47°C° 0 mm 2 mps 724 mmHg 8%
    17:00 +46°C° 0 mm 2 mps 724 mmHg 9%
    18:00 +45°C° 0 mm 2 mps 724 mmHg 9%
    19:00 +42°C° 0 mm 2 mps 724 mmHg 10%
    20:00 +41°C° 0 mm 2 mps 725 mmHg 10%
    21:00 +40°C° 0 mm 2 mps 725 mmHg 10%
    22:00 +40°C° 0 mm 2 mps 726 mmHg 10%
    23:00 +39°C° 0 mm 2 mps 725 mmHg 10%

    Day after tomorrow, 23 April, Tuesday

    Time Temperature Precipitation Wind Pressure Humidity
    00:00 +38°C° 0 mm 2 mps 725 mmHg 11%
    01:00 +37°C° 0 mm 2 mps 725 mmHg 11%
    02:00 +37°C° 0 mm 2 mps 725 mmHg 12%
    03:00 +36°C° 0 mm 2 mps 725 mmHg 14%
    04:00 +35°C° 0 mm 2 mps 725 mmHg 15%
    05:00 +35°C° 0 mm 2 mps 725 mmHg 15%
    06:00 +36°C° 0 mm 2 mps 726 mmHg 14%
    07:00 +35°C° 0 mm 1 mps 726 mmHg 14%
    08:00 +37°C° 0 mm 1 mps 727 mmHg 14%
    09:00 +40°C° 0 mm 1 mps 727 mmHg 14%
    10:00 +43°C° 0 mm 1 mps 728 mmHg 15%
    11:00 +45°C° 0 mm 2 mps 727 mmHg 13%
    12:00 +46°C° 0 mm 2 mps 727 mmHg 11%
    13:00 +47°C° 0 mm 2 mps 726 mmHg 10%
    14:00 +47°C° 0 mm 2 mps 725 mmHg 9%
    15:00 +47°C° 0 mm 2 mps 725 mmHg 9%
    16:00 +47°C° 0 mm 2 mps 724 mmHg 8%
    17:00 +45°C° 0 mm 1 mps 724 mmHg 8%
    18:00 +44°C° 0 mm 1 mps 725 mmHg 9%
    19:00 +42°C° 0 mm 1 mps 725 mmHg 9%
    20:00 +42°C° 0 mm 1 mps 725 mmHg 9%
    21:00 +41°C° 0 mm 1 mps 726 mmHg 10%
    22:00 +40°C° 0 mm 1 mps 726 mmHg 10%
    23:00 +39°C° 0 mm 1 mps 726 mmHg 11%

    24 April, Wednesday

    Time Temperature Precipitation Wind Pressure Humidity
    00:00 +39°C° 0 mm 2 mps 726 mmHg 12%
    01:00 +38°C° 0 mm 2 mps 726 mmHg 13%
    02:00 +38°C° 0 mm 2 mps 726 mmHg 14%
    03:00 +37°C° 0 mm 2 mps 726 mmHg 15%
    04:00 +35°C° 0 mm 1 mps 726 mmHg 16%
    05:00 +37°C° 0 mm 2 mps 726 mmHg 15%
    06:00 +37°C° 0 mm 2 mps 727 mmHg 14%
    07:00 +38°C° 0 mm 2 mps 728 mmHg 14%
    08:00 +39°C° 0 mm 2 mps 728 mmHg 17%
    09:00 +41°C° 0 mm 2 mps 728 mmHg 19%
    10:00 +42°C° 0 mm 2 mps 729 mmHg 22%
    11:00 +45°C° 0 mm 2 mps 728 mmHg 19%
    12:00 +46°C° 0 mm 2 mps 727 mmHg 16%
    13:00 +47°C° 0 mm 2 mps 727 mmHg 13%
    14:00 +47°C° 0 mm 2 mps 726 mmHg 11%
    15:00 +48°C° 0 mm 2 mps 725 mmHg 10%
    16:00 +48°C° 0 mm 2 mps 725 mmHg 9%
    17:00 +46°C° 0 mm 2 mps 725 mmHg 8%
    18:00 +45°C° 0 mm 2 mps 726 mmHg 8%
    19:00 +43°C° 0 mm 2 mps 726 mmHg 7%
    20:00 +42°C° 0 mm 2 mps 726 mmHg 7%
    21:00 +41°C° 0 mm 2 mps 727 mmHg 7%
    22:00 +40°C° 0 mm 2 mps 727 mmHg 7%
    23:00 +39°C° 0 mm 2 mps 727 mmHg 7%

    25 April, Thursday

    Time Temperature Precipitation Wind Pressure Humidity
    00:00 +38°C° 0 mm 3 mps 727 mmHg 8%
    01:00 +38°C° 0 mm 3 mps 726 mmHg 8%
    02:00 +37°C° 0 mm 3 mps 726 mmHg 7%
    03:00 +36°C° 0 mm 3 mps 726 mmHg 7%
    04:00 +35°C° 0 mm 3 mps 726 mmHg 6%
    05:00 +35°C° 0 mm 2 mps 727 mmHg 5%
    06:00 +36°C° 0 mm 2 mps 728 mmHg 5%
    07:00 +35°C° 0 mm 1 mps 728 mmHg 4%
    08:00 +37°C° 0 mm 1 mps 729 mmHg 4%
    09:00 +40°C° 0 mm 2 mps 729 mmHg 3%
    10:00 +42°C° 0 mm 2 mps 729 mmHg 2%
    11:00 +43°C° 0 mm 2 mps 728 mmHg 2%
    12:00 +46°C° 0 mm 2 mps 728 mmHg 2%
    13:00 +47°C° 0 mm 2 mps 727 mmHg 3%
    14:00 +47°C° 0 mm 3 mps 726 mmHg 3%
    15:00 +47°C° 0 mm 3 mps 725 mmHg 3%
    16:00 +47°C° 0 mm 3 mps 725 mmHg 3%
    17:00 +46°C° 0 mm 3 mps 725 mmHg 3%
    18:00 +43°C° 0 mm 2 mps 726 mmHg 3%
    19:00 +41°C° 0 mm 2 mps 726 mmHg 4%
    20:00 +40°C° 0 mm 2 mps 726 mmHg 3%
    21:00 +39°C° 0 mm 2 mps 727 mmHg 3%
    22:00 +38°C° 0 mm 3 mps 727 mmHg 3%
    23:00 +37°C° 0 mm 3 mps 727 mmHg 3%

    26 April, Friday

    Time Temperature Precipitation Wind Pressure Humidity
    00:00 +37°C° 0 mm 3 mps 727 mmHg 3%
    01:00 +36°C° 0 mm 3 mps 726 mmHg 3%
    02:00 +35°C° 0 mm 3 mps 726 mmHg 3%
    03:00 +34°C° 0 mm 3 mps 726 mmHg 4%
    04:00 +33°C° 0 mm 3 mps 726 mmHg 4%
    05:00 +33°C° 0 mm 3 mps 727 mmHg 4%
    06:00 +34°C° 0 mm 3 mps 727 mmHg 4%
    07:00 +34°C° 0 mm 3 mps 728 mmHg 4%
    08:00 +37°C° 0 mm 3 mps 728 mmHg 3%
    09:00 +39°C° 0 mm 3 mps 728 mmHg 3%
    10:00 +43°C° 0 mm 3 mps 729 mmHg 2%
    11:00 +44°C° 0 mm 3 mps 728 mmHg 2%
    12:00 +45°C° 0 mm 3 mps 727 mmHg 2%
    13:00 +47°C° 0 mm 2 mps 727 mmHg 2%
    14:00 +47°C° 0 mm 2 mps 726 mmHg 2%
    15:00 +47°C° 0 mm 2 mps 725 mmHg 2%
    16:00 +47°C° 0 mm 2 mps 725 mmHg 2%
    17:00 +45°C° 0 mm 2 mps 725 mmHg 2%
    18:00 +42°C° 0 mm 2 mps 725 mmHg 2%
    19:00 +40°C° 0 mm 1 mps 725 mmHg 2%
    20:00 +39°C° 0 mm 1 mps 725 mmHg 3%
    21:00 +37°C° 0 mm 1 mps 726 mmHg 3%
    22:00 +36°C° 0 mm 1 mps 726 mmHg 3%
    23:00 +36°C° 0 mm 1 mps 725 mmHg 3%
    Show more